Probability
0 0 0 0 0 0 0 0 0 0 0 0 0 0 0 0 0 0 0 0 0 0 0 0 0 0 0 0 0 0 0 0 0 0 0 0 0 0 0 0 0 0 0 0
0 0 0 0 0 0 0 0 0 0 0 0 0 0 0 0 0 0 0 0 0 0 0 0 0 0 0 0 0 0 0 0 0 0 0 0 0 0 0 0 0 0 0 0
0 0 0 0 0 0 0 0 0 0 0 0 0 0 0 0 0 0 0 0 0 0 0 0 0 0 0 0 0 0 0 0 0 0 0 0 0 0 0 0 0 0 0 0
0 0 0 0 0 0 0 0 0 0 0 0 0 0 0 0 0 0 0 0 0 0 0 0 0 0 0 0 0 0 0 0 0 0 0 0 0 0 0 0 0 0 0 0
0 0 0 0 0 0 0 0 0 0 0 0 0 0 0 0 0 0 0 0 0 0 0 0 0 0 0 0 0 0 0 0 0 0 0 0 0 0 0 0 0 0 0 0
0 0 0 0 0 0 0 0 0 0 0 0 0 0 0 0 0 0 0 0 0 0 0 0 0 0 0 0 0 0 0 0 0 0 0 0 0 0 0 0 0 0 0 0
0 0 0 0 0 0 0 0 0 0 0 0 0 0 0 0 0 0 0 0 0 0 0 0 0 0 0 0 0 0 0 0 0 0 0 0 0 0 0 0 0 0 0 0
0 0 0 0 0 0 0 0 0 0 0 0 0 0 0 0 0 0 0 0 0 0 0 0 0 0 0 0 0 0 0 0 0 0 0 0 0 0 0 0 0 0 0 0
0 0 0 0 0 0 0 0 0 0 0 0 0 0 0 0 0 0 0 0 0 0 0 0 0 0 0 0 0 0 0 0 0 0 0 0 0 0 0 0 0 0 0 0
0 0 0 0 0 0 0 0 0 0 0 0 0 0 0 0 0 0 0 0 0 0 0 0 0 0 0 0 0 0 0 0 0 0 0 0 0 0 0 0 0 0 0 0
0 0 0 0 0 0 0 0 0 0 0 0 0 0 0 0 0 0 0 0 0 0 0 0 0 0 0 0 0 0 0 0 0 0 0 0 0 0 0 0 0 0 0 0
0 0 0 0 0 0 0 0 0 0 0 0 0 0 0 0 0 0 0 0 0 0 0 0 0 0 0 0 0 0 0 0 0 0 0 0 0 0 0 0 0 0 0 0
0 0 0 0 0 0 0 0 0 0 0 0 0 0 0 0 0 0 0 0 0 0 0 0 0 0 0 0 0 0 0 0 0 0 0 0 0 0 0 0 0 0 0 0
0 0 0 0 0 0 0 0 0 0 0 0 0 0 0 0 0 0 0 0 0 0 0 0 0 0 0 0 0 0 0 0 0 0 0 0 0 0 0 0 0 0 0 0
0 0 0 0 0 0 0 0 0 0 0 0 0 0 0 0 0 0 0 0 0 0 0 0 0 0 0 0 0 0 0 0 0 0 0 0 0 0 0 0 0 0 0 0
0 0 0 0 0 0 0 0 0 0 0 0 0 0 0 0 0 0 0 0 0 0 0 0 0 0 0 0 0 0 0 0 0 0 0 0 0 0 0 0 0 0 0 0
0 0 0 0 0 0 0 0 0 0 0 0 0 0 0 0 0 0 0 0 0 0 0 0 0 0 0 0 0 0 0 0 0 0 0 0 0 0 0 0 0 0 0 0
0 0 0 0 0 0 0 0 0 0 0 0 0 0 0 0 0 0 0 0 0 0 0 0 0 0 0 0 0 0 0 0 0 0 0 0 0 0 0 0 0 0 0 0
0 0 0 0 0 0 0 0 0 0 0 0 0 0 0 0 0 0 0 0 0 0 0 0 0 0 0 0 0 0 0 0 0 0 0 0 0 0 0 0 0 0 0 0
0 0 0 0 0 0 0 0 0 0 0 0 0 0 0 0 0 0 0 0 0 0 0 0 0 0 0 0 0 0 0 0 0 0 0 0 0 0 0 0 0 0 0 0
0 0 0 0 0 0 0 0 0 0 0 0 0 0 0 0 0 0 0 0 0 0 0 0 0 0 0 0 0 0 0 0 0 0 0 0 0 0 0 0 0 0 0 0
0 0 0 0 0 0 0 0 0 0 0 0 0 0 0 0 0 0 0 0 0 0 0 0 0 0 0 0 0 0 0 0 0 0 0 0 0 0 0 0 0 0 0 0
0 0 0 0 0 0 0 0 0 0 0 0 0 0 0 0 0 0 0 0 0 0 0 0 0 0 0 0 0 0 0 0 0 0 0 0 0 0 0 0 0 0 0 0
0 0 0 0 0 0 0 0 0 0 0 0 0 0 0 0 0 0 0 0 0 0 0 0 0 0 0 0 0 0 0 0 0 0 0 0 0 0 0 0 0 0 0 0
0 0 0 0 0 0 0 0 0 0 0 0 0 0 0 0 0 0 0 0 0 0 0 0 0 0 0 0 0 0 0 0 0 0 0 0 0 0 0 0 0 0 0 0
0 0 0 0 0 0 0 0 0 0 0 0 0 0 0 0 0 0 0 0 0 0 0 0 0 0 0 0 0 0 0 0 0 0 0 0 0 0 0 0 0 0 0 0
0 0 0 0 0 0 0 0 0 0 0 0 0 0 0 0 0 0 0 0 0 0 0 0 0 0 0 0 0 0 0 0 0 0 0 0 0 0 0 0 0 0 0 0
Height
5847 5848 5849 5850 5852 5853 5854 5855 5855 5855 5855 5856 5856 5855 5855 5854 5853 5852 5850 5849 5847 5844 5842 5839 5836 5833 5829 5826 5822 5818 5814 5811 5806 5802 5798 5793 5789 5784 5779 5774 5769 5764 5759 5754
5845 5846 5848 5849 5850 5851 5852 5853 5854 5854 5855 5854 5854 5854 5853 5853 5852 5850 5849 5847 5845 5843 5840 5838 5835 5831 5828 5824 5821 5817 5813 5809 5805 5801 5797 5792 5788 5783 5779 5774 5769 5763 5758 5753
5844 5845 5846 5848 5849 5850 5851 5851 5852 5853 5854 5853 5853 5852 5852 5851 5850 5849 5847 5845 5843 5841 5838 5835 5832 5829 5826 5822 5819 5815 5811 5807 5803 5799 5795 5791 5787 5782 5778 5773 5768 5763 5757 5752
5841 5843 5844 5848 5847 5848 5848 5849 5850 5850 5851 5851 5850 5850 5849 5848 5847 5846 5844 5843 5841 5838 5836 5833 5830 5827 5823 5820 5816 5813 5809 5805 5801 5797 5794 5789 5785 5781 5777 5772 5767 5762 5757 5752
5839 5840 5841 5843 5844 5845 5846 5847 5847 5848 5848 5848 5847 5847 5846 5845 5844 5843 5841 5840 5837 5835 5833 5830 5827 5824 5820 5817 5814 5810 5806 5803 5799 5795 5791 5787 5783 5779 5775 5771 5766 5761 5756 5751
5836 5837 5838 5840 5841 5841 5843 5843 5844 5844 5844 5844 5844 5844 5844 5842 5841 5839 5838 5836 5834 5832 5829 5827 5824 5821 5817 5814 5810 5807 5803 5800 5796 5793 5789 5785 5781 5777 5773 5769 5765 5760 5755 5750
5832 5833 5834 5836 5837 5838 5840 5841 5841 5840 5840 5840 5840 5840 5839 5838 5836 5835 5834 5832 5830 5828 5826 5823 5820 5817 5814 5810 5807 5804 5800 5796 5793 5789 5786 5782 5778 5774 5770 5767 5763 5758 5754 5749
5827 5828 5832 5832 5833 5834 5835 5835 5835 5835 5836 5835 5835 5835 5834 5833 5832 5831 5829 5828 5826 5824 5822 5819 5816 5813 5810 5807 5803 5799 5796 5792 5789 5785 5782 5779 5775 5771 5768 5764 5760 5756 5752 5748
5823 5825 5826 5827 5827 5828 5829 5829 5830 5830 5830 5830 5830 5830 5829 5828 5827 5826 5825 5823 5821 5819 5817 5815 5812 5809 5805 5802 5798 5795 5791 5788 5784 5781 5778 5774 5771 5767 5764 5760 5757 5753 5750 5746
5816 5818 5819 5820 5821 5822 5823 5823 5824 5824 5825 5825 5824 5824 5824 5823 5822 5821 5820 5818 5816 5814 5812 5809 5806 5803 5800 5796 5792 5789 5785 5782 5779 5776 5772 5769 5766 5763 5759 5756 5753 5750 5746 5743
5810 5811 5812 5814 5815 5816 5817 5817 5818 5818 5818 5818 5818 5818 5818 5817 5816 5815 5814 5812 5810 5808 5806 5803 5800 5797 5793 5790 5786 5782 5779 5775 5772 5769 5766 5763 5760 5757 5754 5751 5747 5745 5742 5738
5803 5804 5805 5807 5808 5809 5810 5810 5811 5811 5811 5811 5811 5811 5811 5810 5810 5809 5807 5806 5804 5801 5799 5796 5793 5790 5786 5782 5779 5775 5772 5768 5765 5762 5759 5756 5753 5751 5748 5745 5742 5738 5736 5733
5794 5795 5796 5799 5800 5801 5802 5802 5803 5804 5804 5804 5804 5804 5804 5803 5802 5801 5800 5798 5796 5794 5791 5788 5785 5782 5778 5774 5771 5767 5764 5761 5758 5754 5752 5749 5746 5744 5742 5739 5736 5732 5729 5727
5784 5786 5788 5790 5791 5792 5793 5794 5795 5795 5796 5796 5796 5796 5796 5795 5794 5793 5792 5791 5788 5786 5783 5780 5777 5774 5770 5766 5763 5759 5756 5753 5750 5747 5744 5742 5739 5736 5734 5732 5730 5727 5723 5720
5774 5776 5778 5779 5781 5782 5783 5784 5785 5786 5787 5787 5787 5787 5787 5786 5786 5785 5783 5782 5780 5777 5774 5771 5768 5764 5761 5757 5754 5751 5748 5745 5742 5739 5737 5734 5732 5729 5726 5724 5722 5719 5717 5714
5763 5764 5766 5769 5771 5772 5773 5774 5775 5776 5777 5777 5777 5777 5777 5777 5776 5775 5774 5772 5770 5768 5765 5761 5758 5755 5751 5748 5745 5742 5740 5737 5735 5732 5729 5727 5724 5721 5719 5716 5714 5711 5708 5706
5750 5752 5755 5757 5759 5760 5762 5763 5764 5765 5766 5767 5767 5767 5767 5766 5766 5764 5763 5762 5760 5757 5754 5751 5747 5744 5741 5738 5736 5733 5731 5728 5726 5723 5721 5718 5716 5713 5710 5708 5705 5702 5700 5697
5736 5739 5741 5744 5745 5747 5749 5751 5752 5754 5755 5755 5755 5755 5755 5755 5754 5753 5752 5750 5748 5746 5743 5740 5736 5733 5731 5728 5726 5724 5721 5719 5717 5714 5712 5709 5707 5704 5701 5699 5696 5694 5691 5688
5721 5724 5727 5729 5732 5734 5736 5737 5739 5740 5742 5742 5742 5742 5743 5742 5742 5741 5740 5738 5736 5734 5731 5728 5725 5722 5720 5717 5715 5713 5711 5709 5707 5704 5702 5699 5697 5694 5692 5689 5686 5683 5681 5678
5705 5708 5711 5714 5717 5719 5722 5723 5725 5726 5728 5728 5729 5729 5729 5729 5729 5728 5727 5726 5724 5721 5719 5716 5713 5711 5708 5706 5704 5702 5700 5698 5696 5694 5691 5689 5686 5683 5681 5678 5675 5672 5669 5666
5688 5691 5695 5698 5701 5704 5706 5708 5709 5711 5712 5713 5714 5715 5715 5715 5715 5714 5714 5713 5711 5708 5706 5704 5701 5699 5696 5694 5693 5691 5689 5687 5685 5683 5680 5677 5674 5671 5668 5665 5662 5659 5656 5653
5670 5674 5678 5681 5684 5687 5689 5692 5694 5696 5697 5698 5699 5700 5700 5701 5700 5700 5700 5699 5697 5695 5693 5691 5689 5686 5684 5683 5681 5679 5677 5675 5673 5670 5668 5665 5662 5658 5655 5652 5648 5645 5641 5637
5653 5657 5661 5664 5667 5670 5673 5676 5678 5680 5682 5683 5684 5685 5685 5686 5686 5686 5685 5685 5683 5681 5679 5678 5676 5674 5672 5671 5669 5667 5665 5663 5660 5657 5654 5651 5648 5644 5640 5636 5633 5628 5624 5620
5637 5641 5644 5647 5650 5654 5657 5659 5662 5664 5666 5667 5669 5669 5670 5670 5670 5670 5670 5669 5668 5667 5666 5664 5663 5662 5660 5659 5657 5654 5652 5649 5646 5643 5640 5636 5632 5628 5624 5620 5615 5611 5606 5601
5621 5625 5628 5632 5635 5638 5641 5644 5646 5648 5650 5652 5653 5654 5654 5655 5655 5655 5655 5655 5654 5653 5652 5651 5650 5649 5648 5646 5644 5641 5638 5635 5632 5628 5625 5621 5616 5612 5607 5602 5597 5591 5586 5580
5606 5610 5613 5616 5620 5623 5626 5629 5631 5633 5635 5637 5638 5639 5640 5641 5641 5641 5640 5640 5640 5640 5639 5639 5638 5636 5634 5632 5630 5627 5624 5621 5617 5613 5609 5604 5600 5594 5589 5583 5577 5571 5565 5558
5592 5595 5599 5602 5605 5608 5611 5614 5617 5619 5621 5623 5624 5625 5626 5627 5627 5627 5627 5627 5627 5627 5626 5626 5624 5623 5621 5619 5616 5613 5610 5606 5602 5597 5593 5588 5582 5577 5571 5564 5557 5550 5543 5536
Wind_Speed
15 12 11 11 11 10 9 9 8 6 4 3 2 2 3 4 5 7 8 10 11 13 14 15 16 17 18 19 20 20 20 21 21 22 22 23 24 24 25 25 26 26 26 26
14 13 12 11 10 9 9 8 7 6 4 4 3 3 4 5 6 7 9 10 12 13 15 16 17 18 19 19 20 20 21 21 21 22 22 23 23 24 25 25 26 26 27 27
14 14 13 12 11 10 9 8 7 6 5 5 5 5 6 7 8 9 10 12 13 14 16 17 18 19 20 20 20 21 21 21 22 22 22 23 23 24 24 25 26 26 26 27
15 14 14 12 11 10 10 10 9 8 8 8 8 8 8 9 10 11 12 13 14 16 17 18 19 20 21 21 21 21 22 22 22 22 23 23 23 24 24 24 25 26 26 26
16 16 13 13 12 12 12 11 11 10 10 10 11 10 11 12 12 13 14 15 16 17 18 19 20 21 21 22 22 23 23 23 23 23 23 24 24 24 24 24 25 25 26 26
18 17 15 15 13 14 14 13 13 13 12 13 13 13 12 13 14 14 15 16 17 18 18 20 21 22 23 23 24 24 24 24 24 25 25 25 25 25 25 25 25 25 25 26
19 19 19 16 14 16 16 15 15 15 15 15 16 15 15 15 15 16 16 17 17 18 19 21 22 23 23 24 25 26 26 26 26 26 25 25 25 25 25 25 25 25 25 25
22 22 22 18 17 18 18 17 17 17 17 17 17 17 17 17 17 17 17 18 19 20 21 22 23 24 25 26 27 28 28 27 27 27 27 26 26 26 26 26 26 25 25 25
24 25 23 21 20 21 20 20 20 19 19 19 19 19 19 19 19 18 19 20 21 22 22 23 25 26 27 28 29 29 29 29 29 28 28 28 28 27 27 26 26 25 25 25
26 25 24 24 23 23 23 22 22 22 21 21 21 21 21 20 20 20 21 21 22 23 25 26 27 29 30 31 31 31 31 31 30 30 29 29 28 28 28 27 27 26 25 25
27 27 27 26 26 25 25 25 24 24 24 23 23 23 22 22 22 22 22 23 24 26 27 29 30 31 32 33 33 33 32 32 32 31 30 29 29 29 29 28 28 27 26 26
29 30 31 29 28 28 27 27 27 26 26 25 25 25 24 24 24 24 25 26 27 28 30 31 33 34 35 35 34 34 34 33 32 31 30 29 29 28 29 29 29 29 28 28
33 33 33 31 30 30 30 29 29 28 28 28 27 27 27 26 26 26 27 28 29 31 32 34 35 36 37 37 36 35 34 33 32 31 30 30 29 28 28 28 29 29 29 29
37 36 35 34 33 33 32 32 31 31 30 30 30 30 29 29 29 29 30 31 32 34 35 36 37 38 38 37 36 35 33 32 31 30 30 29 29 29 29 28 28 29 29 30
39 37 37 37 36 35 35 34 34 33 33 32 32 32 32 32 32 32 33 34 35 36 37 38 39 39 38 37 36 34 32 31 30 30 29 29 29 29 30 30 30 29 30 30
41 41 41 40 38 38 37 37 37 36 36 35 35 35 35 35 36 36 37 37 38 38 39 40 41 40 39 38 36 34 33 32 31 30 30 30 30 30 30 31 31 31 31 31
45 44 43 43 42 42 41 41 41 40 39 39 39 39 39 39 39 40 40 40 41 41 42 43 42 41 39 38 36 35 34 34 33 32 31 31 32 32 32 32 32 32 33 33
48 47 47 47 47 46 45 45 44 43 43 43 43 44 43 43 43 43 43 43 43 43 44 44 43 41 39 38 37 36 35 34 34 33 33 33 33 33 33 33 33 34 34 35
51 50 50 50 50 50 49 49 48 48 47 47 47 47 47 47 46 46 46 46 46 46 46 45 43 41 40 39 38 37 36 35 35 35 35 35 35 35 35 35 36 36 36 37
53 53 53 53 53 53 52 52 52 51 51 51 51 51 51 50 50 49 49 48 48 48 47 45 43 42 41 39 38 37 36 36 36 36 37 37 37 37 38 38 38 39 40 40
54 55 56 56 56 56 56 56 56 55 55 55 55 55 54 54 53 52 52 51 50 49 48 46 44 43 41 39 38 38 37 37 38 39 39 40 40 41 41 42 42 43 44 44
54 55 56 58 58 59 59 59 59 58 58 58 58 57 57 57 56 55 54 53 52 51 49 47 44 42 40 39 39 38 39 39 40 41 42 43 43 44 44 45 46 47 48 49
53 54 55 57 58 59 60 61 61 61 61 61 60 60 59 59 58 57 56 54 53 51 48 46 43 41 40 39 39 40 41 42 43 44 45 45 46 47 48 49 50 52 53 53
51 52 53 55 56 58 59 60 60 61 61 61 61 60 60 59 59 57 56 54 51 49 46 44 42 41 40 40 41 42 43 44 45 46 47 48 50 51 52 53 55 56 57 58
48 49 51 52 54 55 56 57 57 58 58 59 59 58 58 57 56 54 52 50 48 46 44 42 41 41 41 42 43 44 45 46 48 49 50 51 53 54 56 57 59 60 61 62
45 46 47 48 50 51 52 53 53 54 55 55 54 54 53 52 51 49 47 45 44 42 41 41 41 41 42 43 44 46 47 49 50 51 53 54 56 57 59 61 62 64 65 66
42 42 43 44 45 46 47 47 48 48 49 48 48 47 47 46 45 43 42 41 41 41 41 41 42 42 43 45 46 48 49 51 52 53 55 56 58 60 61 63 64 66 67 68
Wind_Direction
213 219 209 208 209 209 210 213 220 221 227 237 260 289 312 328 335 338 341 343 344 345 345 346 347 347 347 347 348 349 349 350 352 353 355 357 359 359 359 359 359 360 359 357
218 216 212 211 208 207 208 213 219 224 227 236 257 278 298 313 322 327 331 333 335 337 337 339 340 341 341 341 341 342 343 345 347 349 351 352 354 355 357 358 359 359 359 358
219 217 214 215 213 213 215 219 224 231 239 250 264 277 291 303 311 317 321 325 328 330 331 332 334 335 336 337 338 339 340 341 342 344 347 349 350 352 353 355 356 357 358 359
221 221 221 217 218 224 227 230 234 242 250 260 269 278 288 296 303 309 313 317 320 323 325 327 329 331 332 333 335 335 336 337 339 341 342 344 346 348 350 351 353 355 356 357
227 229 228 226 224 233 235 238 242 249 256 264 271 278 287 293 299 304 309 314 317 320 323 325 327 328 329 330 331 332 333 334 335 337 338 340 341 343 346 348 350 352 354 355
232 236 239 235 230 239 243 246 248 254 261 267 274 279 284 290 295 301 307 311 315 318 320 322 324 326 327 328 328 329 330 330 331 333 334 336 337 339 341 343 346 348 350 352
237 240 244 243 241 246 250 252 253 259 264 269 275 280 284 288 293 299 304 308 311 314 317 320 322 323 324 324 324 325 326 326 328 329 330 331 333 334 336 338 341 343 345 348
240 244 247 249 250 252 256 258 259 262 266 270 274 278 283 287 292 296 300 304 307 310 313 316 318 319 320 320 321 321 322 322 322 323 324 325 327 328 330 332 335 337 340 342
244 248 251 253 254 256 258 260 262 265 267 270 273 277 281 285 289 292 296 300 304 307 310 312 314 316 317 317 317 317 317 317 317 317 317 318 320 321 323 325 328 330 333 336
248 251 253 255 256 257 260 262 263 265 267 269 272 276 279 283 286 289 293 297 301 304 307 309 312 314 314 314 314 314 314 314 313 313 313 312 313 315 317 319 321 323 326 329
249 253 255 255 257 259 261 263 265 266 268 270 272 275 278 280 283 286 290 295 298 302 305 307 310 312 313 312 312 311 311 311 311 311 311 310 310 311 312 314 315 317 319 321
251 253 255 255 257 260 262 263 265 266 268 269 272 274 277 279 282 285 289 293 297 300 303 306 308 309 310 310 310 310 309 309 308 308 308 308 308 309 310 311 312 313 314 315
252 253 256 259 260 260 262 263 265 266 268 270 272 274 276 278 281 284 288 292 295 298 301 304 306 307 308 308 308 308 308 307 306 306 306 306 306 307 307 307 308 309 309 310
252 254 257 259 260 260 262 263 264 266 267 269 271 273 275 278 281 284 288 292 295 297 299 302 304 305 305 305 305 306 306 306 305 304 304 304 305 306 306 306 306 305 305 306
252 254 256 257 258 260 261 263 264 266 267 269 271 273 275 278 281 284 288 291 294 297 298 300 302 303 303 303 303 303 303 304 304 303 303 303 304 304 305 306 306 306 305 304
251 251 253 255 257 258 260 261 263 265 266 268 270 272 275 278 281 284 287 291 294 296 298 299 301 301 300 300 299 300 300 301 302 301 301 302 303 303 304 304 304 304 304 303
249 250 252 254 255 256 258 259 261 263 266 268 270 272 274 277 280 284 287 290 293 295 297 298 299 299 297 296 296 296 297 298 299 299 299 300 301 302 302 303 303 303 303 303
249 249 250 251 254 256 258 260 262 263 265 266 268 271 273 277 280 283 286 289 291 294 296 297 297 297 294 293 293 293 294 295 296 297 298 299 300 300 301 301 302 302 302 302
248 249 249 250 252 254 256 258 260 262 264 266 268 270 273 276 279 282 285 288 291 293 295 295 295 294 292 291 291 291 292 293 294 295 296 298 299 299 299 300 300 301 301 301
249 249 249 250 251 253 255 257 259 261 263 265 268 270 273 276 278 281 284 287 290 292 293 293 293 292 291 290 289 289 290 291 293 295 296 297 298 299 299 299 299 300 300 300
249 249 249 250 251 252 254 256 258 260 262 265 267 270 273 275 278 281 283 285 288 290 291 291 291 290 289 288 287 288 289 291 293 295 296 297 298 299 299 299 299 300 300 299
248 249 249 249 250 251 252 254 257 259 262 264 267 270 272 275 277 279 282 284 286 288 288 288 288 287 286 286 287 288 290 292 294 295 296 297 298 298 299 300 300 300 300 300
248 248 248 249 250 251 252 254 256 258 261 264 266 269 271 274 276 278 280 282 284 285 285 284 284 283 283 284 286 288 290 292 294 296 297 298 298 299 300 300 301 301 301 300
248 248 248 248 249 250 252 253 255 258 260 263 265 268 270 273 275 277 279 280 281 281 281 281 281 281 283 285 287 289 291 293 295 296 297 298 299 300 300 301 301 302 302 302
248 248 248 248 249 250 251 253 255 257 259 262 264 267 269 271 273 275 277 277 278 278 277 278 279 281 283 286 288 291 292 294 296 297 298 299 300 301 301 302 302 303 303 303
247 247 247 248 249 250 251 252 254 256 258 261 263 266 268 270 272 273 274 274 274 274 275 277 279 281 284 287 289 291 293 295 296 297 298 299 300 301 302 303 304 304 304 304
246 246 246 247 248 249 250 251 253 255 257 260 262 264 266 268 269 270 271 271 272 273 275 277 279 282 285 288 290 292 293 295 296 297 299 300 301 302 303 304 305 305 305 305